Location: Potomac
(46.8816°N, 113.5795°W)
Time: 07:27:29
(UTC+00:00)

NANOSAT C BR1 - Pass Details

Date: 30 June 2022
Orbit: 584 x 599 km, 98.0° (Epoch: 17 August)

Event Time Altitude Azimuth Distance (km) Brightness Sun altitude
Rises 09:04:28 0° 22° (NNE) 2,850 ? -17.3°
Reaches altitude 10° 09:06:51 10° 33° (NNE) 1,945 ? -17.1°
Maximum altitude 09:10:36 31° 96° (E) 1,072 ? -16.9°
Enters shadow 09:13:13 17° 149° (SSE) 1,556 ? -16.7°
